FACT Airport Information

Runway Information
Runway 01 Length 10502 ft width 200 ft
Elevation 144 ft Threshold 0 ft Heading 346
Runway 19 Length 10502 ft Width 200 ft
Elevation 147 ft Threshold 0 ft Heading 166
Runway 16 Length 5581 ft width 151 ft
Elevation 143 ft Threshold 0 ft Heading 136
Runway 34 Length 5581 ft Width 151 ft
Elevation 151 ft Threshold 0 ft Heading 316
Airport Frequencies
Type APP Name APP Frequency 120.05 MHZ
Type ARSA Name Director Frequency 124.5 MHZ
Type ATIS Name ATIS Frequency 127 MHZ
Type GND Name GND Frequency 121.9 MHZ
Type GTE Name APRON Frequency 122.65 MHZ
Type TWR Name TWR Frequency 118.1 MHZ
Airport Navaids
Type NDB Name Cape Town Frequency 463 KHZ
Type VORTAC Name Cape Town Frequency 115700 KHZ
Airport Weather Information & NOTAM
ADDS - METARS form results

(1455 UTC 22 July 2018)
 
METAR text: FACT 221400Z 02020KT CAVOK 28/09 Q1015 NOSIG
Conditions at: FACT (CAPETOWN/DF MALA, ZA) observed 1400 UTC 22 July 2018
Temperature: 28.0°C (82°F)
Dewpoint: 9.0°C (48°F) [RH = 30%]
Pressure (altimeter): 29.97 inches Hg (1015.0 mb)
Winds: from the NNE (20 degrees) at 23 MPH (20 knots; 10.4 m/s)
Visibility: 6 or more miles (10+ km)
Ceiling: ceiling and visibility are OK
Clouds: unknown
Weather: no significant weather observed at this time